Location: Auckland
(36.8670°S, 174.7670°E)
Time: 17:29:35
(UTC+13:00)

Helios 1B rocket - Pass Details

Date: 24 January 2019
Orbit: 575 x 585 km, 98.1° (Epoch: 18 October)

Event Time Altitude Azimuth Distance (km) Brightness Sun altitude
Exits shadow 22:56:37 58° 118° (ESE) 687 2.6 -22.9°
Drops below altitude 10° 23:00:32 10° 184° (S) 1,920 5.8 -23.4°
Sets 23:02:44 0° 188° (S) 2,829 6.9 -23.7°
